Home > Weather > Huntington Beach > Past weeks

Flag for U.S.A. Weather for the Past 2 Weeks in Huntington Beach, California, U.S.A.

Now
77 °F

Sunny.


Feels Like: 76 °F
Forecast: 49 / 74 °F
Wind: 10 mph from Northeast

Location: John Wayne Airport-Orange County Airport

Current Time: Feb 5, 2016 at 5:25:59 PM

Latest Report: Feb 5, 2016 at 3:53 PM


Visibility: 10 mi

Pressure: 30.22 "Hg

Humidity: 13%

Dew point: 22 °F

Location of Huntington BeachLocation

Historic Weather in Huntington Beach — Graph

°F

Huntington Beach Temperature Yesterday

Maximum temperature yesterday: 69 °F (at 1:53 PM)
Minimum temperature yesterday: 43 °F (at 6:53 AM)
Average temperature yesterday: 56 °F

High & Low Weather Summary for the Past Weeks

 TemperatureHumidityPressure
High78 °F (Feb 5, 1:53 PM)100% (Jan 22, 5:53 AM)30.36 "Hg (Jan 22, 5:53 AM)
Low37 °F (Feb 2, 4:53 AM)12% (Feb 5, 11:53 AM)29.64 "Hg (Jan 31, 1:53 PM)
Average56 °F60%30.11 "Hg
* Reported Jan 21 3:53 PM — Feb 5 3:53 PM, Huntington Beach, Weather by CustomWeather, © 2016

Note: Actual official high and low records may vary slightly from our data, if they occured in-between our weather recording intervals... More about our weather records

Advertising

Huntington Beach Weather History for the Previous 24 Hours

 ConditionsComfort  
Time TempWeatherWind HumidityBarometerVisibility
3:53 PM
Fri, Feb 5
77 °FSunny.10 mph13%30.22 "Hg10 mi
2:53 PM77 °FSunny.12 mph13%30.22 "Hg10 mi
1:53 PM78 °FSunny.12 mph12%30.23 "Hg10 mi
12:53 PM76 °FSunny.6 mph12%30.24 "Hg10 mi
11:53 AM75 °FSunny.6 mph12%30.28 "Hg10 mi
10:53 AM75 °FPassing clouds.9 mph13%30.30 "Hg10 mi
9:53 AM71 °FPassing clouds.No wind16%30.31 "Hg10 mi
8:53 AM66 °FPassing clouds.5 mph21%30.31 "Hg10 mi
7:53 AM55 °FPassing clouds.3 mph35%30.31 "Hg10 mi
6:53 AM49 °FPassing clouds.3 mph48%30.29 "Hg10 mi
5:53 AM48 °FPassing clouds.No wind50%30.27 "Hg10 mi
4:53 AM47 °FClear.No wind50%30.26 "Hg10 mi
3:53 AM49 °FClear.3 mph44%30.26 "Hg10 mi
2:53 AM53 °FClear.No wind32%30.25 "Hg10 mi
1:53 AM62 °FClear.6 mph19%30.24 "Hg10 mi
12:53 AM61 °FClear.7 mph20%30.24 "Hg10 mi
11:53 PM
Thu, Feb 4
56 °FClear.No wind37%30.25 "Hg10 mi
10:53 PM54 °FClear.No wind45%30.25 "Hg10 mi
9:53 PM56 °FClear.No wind37%30.24 "Hg10 mi
8:53 PM60 °FClear.No wind31%30.24 "Hg10 mi
7:53 PM61 °FClear.5 mph32%30.23 "Hg10 mi
6:53 PM63 °FPassing clouds.5 mph34%30.21 "Hg10 mi
5:53 PM66 °FPassing clouds.No wind27%30.20 "Hg10 mi
Weather by CustomWeather, © 2016

See weather overviewHow to use our weather pages